TimeCST,TemperatureF,Dew PointF,Humidity,Sea Level PressureIn,VisibilityMPH,Wind Direction,Wind SpeedMPH,Gust SpeedMPH,PrecipitationIn,Events,Conditions,WindDirDegrees,DateUTC
12:02 AM,55.4,53.6,94,30.19,10.0,NW,9.2,-,N/A,Rain,Light Rain,310,2012-11-12 06:02:00
12:51 AM,55.4,51.8,88,30.18,10.0,NNW,6.9,-,N/A,,Light Drizzle,330,2012-11-12 06:51:00
12:55 AM,54.9,52.7,92,30.19,10.0,NNW,6.9,-,0.00,,Light Drizzle,330,2012-11-12 06:55:00
1:00 AM,55.4,53.6,94,30.19,10.0,NW,6.9,-,N/A,,Overcast,310,2012-11-12 07:00:00
1:06 AM,55.4,53.6,94,30.19,10.0,NW,9.2,-,N/A,,Light Drizzle,310,2012-11-12 07:06:00
1:28 AM,55.4,53.6,94,30.22,10.0,WNW,8.1,-,N/A,,Mostly Cloudy,290,2012-11-12 07:28:00
1:40 AM,55.4,53.6,94,30.22,10.0,WNW,5.8,-,N/A,Rain,Light Rain,290,2012-11-12 07:40:00
1:49 AM,55.4,53.6,94,30.22,10.0,NW,6.9,-,N/A,,Mostly Cloudy,310,2012-11-12 07:49:00
1:55 AM,55.0,53.2,94,30.21,10.0,NW,6.9,-,0.00,,Mostly Cloudy,320,2012-11-12 07:55:00
2:10 AM,55.4,51.8,88,30.22,10.0,NNW,10.4,-,N/A,,Overcast,330,2012-11-12 08:10:00
2:43 AM,53.6,51.8,94,30.22,10.0,NNW,13.8,-,N/A,,Overcast,340,2012-11-12 08:43:00
2:53 AM,53.6,51.8,94,30.22,10.0,NNW,12.7,-,N/A,,Overcast,330,2012-11-12 08:53:00
2:55 AM,53.4,50.9,91,30.22,10.0,NNW,11.5,-,N/A,,Overcast,330,2012-11-12 08:55:00
2:57 AM,53.6,51.8,94,30.22,10.0,NNW,12.7,-,N/A,,Overcast,330,2012-11-12 08:57:00
2:59 AM,53.6,51.8,94,30.22,10.0,NNW,16.1,-,N/A,,Overcast,340,2012-11-12 08:59:00
3:00 AM,53.6,50.0,88,30.22,10.0,NNW,16.1,-,N/A,,Overcast,330,2012-11-12 09:00:00
3:06 AM,51.8,50.0,94,30.22,10.0,NNW,18.4,-,N/A,,Overcast,330,2012-11-12 09:06:00
3:09 AM,51.8,50.0,94,30.23,10.0,NNW,16.1,-,N/A,,Overcast,330,2012-11-12 09:09:00
3:16 AM,51.8,48.2,88,30.24,10.0,NNW,13.8,-,N/A,,Overcast,330,2012-11-12 09:16:00
3:32 AM,50.0,48.2,94,30.25,10.0,NNW,12.7,-,N/A,,Overcast,330,2012-11-12 09:32:00
3:55 AM,49.6,46.4,89,30.25,10.0,NW,13.8,-,N/A,,Overcast,320,2012-11-12 09:55:00
4:55 AM,48.2,43.2,83,30.29,10.0,NNW,16.1,-,N/A,,Overcast,330,2012-11-12 10:55:00
4:59 AM,48.2,42.8,82,30.29,10.0,NNW,17.3,23.0,N/A,,Overcast,330,2012-11-12 10:59:00
5:14 AM,48.2,42.8,82,30.30,10.0,NNW,16.1,-,N/A,,Overcast,330,2012-11-12 11:14:00
5:55 AM,46.4,41.9,84,30.32,10.0,NW,11.5,-,N/A,,Overcast,320,2012-11-12 11:55:00
6:44 AM,46.4,41.0,81,30.37,10.0,NNW,11.5,-,N/A,,Overcast,330,2012-11-12 12:44:00
6:55 AM,45.5,41.0,84,30.38,10.0,NNW,10.4,-,N/A,,Overcast,330,2012-11-12 12:55:00
7:16 AM,44.6,41.0,87,30.39,10.0,NNW,9.2,-,N/A,,Overcast,330,2012-11-12 13:16:00
7:40 AM,44.6,37.4,76,30.41,10.0,North,13.8,-,N/A,,Scattered Clouds,10,2012-11-12 13:40:00
7:55 AM,44.8,37.0,74,30.42,10.0,North,13.8,-,N/A,,Partly Cloudy,350,2012-11-12 13:55:00
8:32 AM,44.6,37.4,76,30.45,10.0,NNW,13.8,-,N/A,,Mostly Cloudy,340,2012-11-12 14:32:00
8:55 AM,44.2,37.8,78,30.46,10.0,North,10.4,-,N/A,,Mostly Cloudy,360,2012-11-12 14:55:00
8:57 AM,44.6,37.4,76,30.46,10.0,North,10.4,-,N/A,,Scattered Clouds,360,2012-11-12 14:57:00
9:55 AM,48.0,37.0,66,30.47,10.0,North,8.1,-,N/A,,Clear,360,2012-11-12 15:55:00
10:55 AM,50.7,37.0,59,30.45,10.0,North,6.9,-,N/A,,Clear,360,2012-11-12 16:55:00
11:55 AM,53.6,32.2,44,30.43,10.0,North,10.4,-,N/A,,Clear,360,2012-11-12 17:55:00
12:55 PM,56.7,30.6,37,30.42,10.0,North,10.4,-,N/A,,Clear,360,2012-11-12 18:55:00
1:55 PM,57.6,29.1,34,30.43,10.0,NE,6.9,-,N/A,,Clear,50,2012-11-12 19:55:00
2:55 PM,58.6,27.5,30,30.43,10.0,Variable,5.8,-,N/A,,Clear,0,2012-11-12 20:55:00
3:55 PM,57.7,26.8,31,30.43,10.0,NNE,9.2,-,N/A,,Clear,30,2012-11-12 21:55:00
4:55 PM,54.1,27.0,35,30.45,10.0,North,8.1,-,N/A,,Clear,10,2012-11-12 22:55:00
5:55 PM,49.1,28.2,44,30.46,10.0,NNE,4.6,-,N/A,,Clear,20,2012-11-12 23:55:00
6:55 PM,47.5,30.6,52,30.47,10.0,NE,3.5,-,N/A,,Clear,40,2012-11-13 00:55:00
7:55 PM,43.9,33.8,68,30.48,10.0,Calm,Calm,-,N/A,,Clear,0,2012-11-13 01:55:00
8:55 PM,42.3,36.7,81,30.48,10.0,Calm,Calm,-,N/A,,Clear,0,2012-11-13 02:55:00
9:55 PM,39.4,34.3,82,30.49,10.0,Calm,Calm,-,N/A,,Clear,0,2012-11-13 03:55:00
10:55 PM,38.3,34.7,87,30.49,10.0,Calm,Calm,-,N/A,,Clear,0,2012-11-13 04:55:00
11:55 PM,37.6,33.8,86,30.48,10.0,Calm,Calm,-,N/A,,Clear,0,2012-11-13 05:55:00